Location: Sungai Bunut
(2.6333°N, 113.7333°E)
Time: 02:35:34
(UTC+00:00)

S-56A Canister/Altair - Pass Details

Date: 06 December 2023
Orbit: 640 x 2488 km, 38.9° (Epoch: 24 February)

Event Time Altitude Azimuth Distance (km) Brightness Sun altitude
Rises 22:08:40 0° 213° (SSW) 5,719 11.9 -2.7°
Reaches altitude 10° 22:13:22 10° 205° (SSW) 4,450 11.4 -1.7°
Maximum altitude 22:23:13 32° 146° (SSE) 2,406 10.9 0.6°
Drops below altitude 10° 22:30:13 10° 85° (E) 3,143 11.9 2.2°
Sets 22:32:54 0° 75° (ENE) 3,871 12.1 2.8°
